Location: Great Falls
(47.5000°N, 111.3000°W)
Time: 01:48:10
(UTC-06:00)

Envisat - Visible Passes

Search period start: 20 June 2018 00:00
Search period end: 30 June 2018 00:00
Orbit: 764 x 766 km, 98.2° (Epoch: 19 June)

Date Brightness Start Highest point End Pass type
(mag) Time Alt. Az. Time Alt. Az. Time Alt. Az.
21 Jun 5.7 22:08:01 10° WSW 22:10:41 14° W 22:13:22 10° NW visible
26 Jun 6.2 22:25:00 10° W 22:25:20 10° W 22:25:39 10° W visible
29 Jun 5.8 22:11:42 10° WSW 22:14:00 13° W 22:16:18 10° WNW visible
